User: anonymous   Login
Location: Colebrook
(42.0017°N, 73.0973°W)
Time: 22:32:55
(UTC-04:00)
Language:

Vanguard 2 - Orbit

View from above orbital plane
View from above orbital plane
View from above satellite
View from above satellite

Ground track
Ground track

The orbit data is extracted from the following two-line orbital elements,

1 00011U 59001A   22220.54306650  .00000137  00000-0  67917-4 0  9999
2 00011  32.8738 358.2924 1466561 347.7838   9.0549 11.86159911367844
Epoch (UTC): 08 August 2022 13:02:00
Eccentricity: 0.1466561
inclination: 32.8738°
perigee height: 552 km
apogee height: 2934 km
right ascension of ascending node: 358.2924°
argument of perigee: 347.7838°
revolutions per day: 11.86159911
mean anomaly at epoch: 9.0549°
orbit number at epoch: 36784

The dashed part of the orbit path shows where the satellite is in the earth's shadow,  

DLR